Time,TemperatureF,DewpointF,PressureIn,WindDirection,WindDirectionDegrees,WindSpeedMPH,WindSpeedGustMPH,Humidity,HourlyPrecipIn,Conditions,Clouds,dailyrainin,SoftwareType,DateUTC
2013-02-25 00:00:00,38.0,28.0,30.04,ENE,68,6.0,6.0,67,0.00,,---,0.00,VWS V14.00,2013-02-25 06:00:00,
2013-02-25 00:05:00,38.0,27.7,30.04,NE,45,3.0,6.0,66,0.00,,---,0.00,VWS V14.00,2013-02-25 06:05:00,
2013-02-25 00:10:00,38.0,27.7,30.04,NE,45,5.0,5.0,66,0.00,,---,0.00,VWS V14.00,2013-02-25 06:10:00,
2013-02-25 00:15:00,38.0,27.7,30.04,NE,45,5.0,5.0,66,0.00,,---,0.00,VWS V14.00,2013-02-25 06:15:00,
2013-02-25 00:20:00,38.0,27.7,30.04,NE,45,6.0,6.0,66,0.00,,---,0.00,VWS V14.00,2013-02-25 06:20:00,
2013-02-25 00:25:00,38.0,27.7,30.04,NE,45,6.0,6.0,66,0.00,,---,0.00,VWS V14.00,2013-02-25 06:25:00,
2013-02-25 00:30:00,38.0,27.7,30.04,NE,45,5.0,7.0,66,0.00,,---,0.00,VWS V14.00,2013-02-25 06:30:00,
2013-02-25 00:35:00,39.0,28.6,30.05,ENE,68,5.0,8.0,66,0.00,,---,0.00,VWS V14.00,2013-02-25 06:35:00,
2013-02-25 00:40:00,38.0,27.3,30.05,NE,45,5.0,5.0,65,0.00,,---,0.00,VWS V14.00,2013-02-25 06:40:00,
2013-02-25 00:45:00,38.0,27.3,30.05,NE,45,3.0,5.0,65,0.00,,---,0.00,VWS V14.00,2013-02-25 06:45:00,
2013-02-25 00:50:00,38.0,27.3,30.06,NE,45,3.0,3.0,65,0.00,,---,0.00,VWS V14.00,2013-02-25 06:50:00,
2013-02-25 00:55:00,39.0,28.2,30.06,ENE,68,3.0,4.0,65,0.00,,---,0.00,VWS V14.00,2013-02-25 06:55:00,
2013-02-25 01:00:00,39.0,28.2,30.06,NE,45,3.0,5.0,65,0.00,,---,0.00,VWS V14.00,2013-02-25 07:00:00,
2013-02-25 01:05:00,38.0,27.3,30.07,NNE,22,3.0,3.0,65,0.00,,---,0.00,VWS V14.00,2013-02-25 07:05:00,
2013-02-25 01:10:00,38.0,27.3,30.07,ENE,68,3.0,5.0,65,0.00,,---,0.00,VWS V14.00,2013-02-25 07:10:00,
2013-02-25 01:15:00,38.0,27.3,30.06,North,0,3.0,6.0,65,0.00,,---,0.00,VWS V14.00,2013-02-25 07:15:00,
2013-02-25 01:20:00,38.0,27.7,30.06,NNE,22,4.0,4.0,66,0.00,,---,0.00,VWS V14.00,2013-02-25 07:20:00,
2013-02-25 01:25:00,37.0,27.1,30.06,NNE,22,3.0,5.0,67,0.00,,---,0.00,VWS V14.00,2013-02-25 07:25:00,
2013-02-25 01:30:00,37.0,27.4,30.06,NE,45,3.0,5.0,68,0.00,,---,0.00,VWS V14.00,2013-02-25 07:30:00,
2013-02-25 01:35:00,37.0,27.4,30.05,NNE,22,4.0,8.0,68,0.00,,---,0.00,VWS V14.00,2013-02-25 07:35:00,
2013-02-25 01:40:00,36.0,26.8,30.05,NE,45,3.0,5.0,69,0.00,,---,0.00,VWS V14.00,2013-02-25 07:40:00,
2013-02-25 01:45:00,36.0,27.2,30.05,NNW,338,3.0,5.0,70,0.00,,---,0.00,VWS V14.00,2013-02-25 07:45:00,
2013-02-25 01:50:00,36.0,27.5,30.06,ENE,68,1.0,3.0,71,0.00,,---,0.00,VWS V14.00,2013-02-25 07:50:00,
2013-02-25 01:55:00,35.0,26.6,30.06,NNE,22,3.0,5.0,71,0.00,,---,0.00,VWS V14.00,2013-02-25 07:55:00,
2013-02-25 02:00:00,36.0,27.9,30.06,NE,45,5.0,7.0,72,0.00,,---,0.00,VWS V14.00,2013-02-25 08:00:00,
2013-02-25 02:05:00,36.0,27.9,30.05,NE,45,5.0,8.0,72,0.00,,---,0.00,VWS V14.00,2013-02-25 08:05:00,
2013-02-25 02:10:00,36.0,27.9,30.05,NE,45,6.0,8.0,72,0.00,,---,0.00,VWS V14.00,2013-02-25 08:10:00,
2013-02-25 02:15:00,36.0,27.9,30.05,NE,45,6.0,8.0,72,0.00,,---,0.00,VWS V14.00,2013-02-25 08:15:00,
2013-02-25 02:20:00,36.0,27.9,30.05,NE,45,8.0,8.0,72,0.00,,---,0.00,VWS V14.00,2013-02-25 08:20:00,
2013-02-25 02:25:00,36.0,28.2,30.06,NE,45,6.0,8.0,73,0.00,,---,0.00,VWS V14.00,2013-02-25 08:25:00,
2013-02-25 02:30:00,36.0,28.2,30.06,NE,45,6.0,6.0,73,0.00,,---,0.00,VWS V14.00,2013-02-25 08:30:00,
2013-02-25 02:35:00,36.0,28.2,30.06,NE,45,5.0,6.0,73,0.00,,---,0.00,VWS V14.00,2013-02-25 08:35:00,
2013-02-25 02:40:00,36.0,27.9,30.06,NE,45,7.0,9.0,72,0.00,,---,0.00,VWS V14.00,2013-02-25 08:40:00,
2013-02-25 02:45:00,36.0,27.9,30.05,ENE,68,8.0,8.0,72,0.00,,---,0.00,VWS V14.00,2013-02-25 08:45:00,
2013-02-25 02:50:00,36.0,27.9,30.06,NE,45,5.0,8.0,72,0.00,,---,0.00,VWS V14.00,2013-02-25 08:50:00,
2013-02-25 02:55:00,36.0,27.9,30.06,NE,45,5.0,7.0,72,0.00,,---,0.00,VWS V14.00,2013-02-25 08:55:00,
2013-02-25 03:00:00,36.0,28.2,30.06,NE,45,3.0,6.0,73,0.00,,---,0.00,VWS V14.00,2013-02-25 09:00:00,
2013-02-25 03:05:00,35.0,27.2,30.06,NE,45,5.0,6.0,73,0.00,,---,0.00,VWS V14.00,2013-02-25 09:05:00,
2013-02-25 03:10:00,35.0,27.6,30.06,NE,45,6.0,6.0,74,0.00,,---,0.00,VWS V14.00,2013-02-25 09:10:00,
2013-02-25 03:15:00,35.0,27.2,30.05,NE,45,9.0,9.0,73,0.00,,---,0.00,VWS V14.00,2013-02-25 09:15:00,
2013-02-25 03:20:00,35.0,27.6,30.05,NE,45,6.0,8.0,74,0.00,,---,0.00,VWS V14.00,2013-02-25 09:20:00,
2013-02-25 03:25:00,35.0,27.6,30.05,NNE,22,7.0,8.0,74,0.00,,---,0.00,VWS V14.00,2013-02-25 09:25:00,
2013-02-25 03:30:00,35.0,27.9,30.05,NNW,338,3.0,8.0,75,0.00,,---,0.00,VWS V14.00,2013-02-25 09:30:00,
2013-02-25 03:35:00,35.0,27.9,30.04,NNW,338,4.0,10.0,75,0.00,,---,0.00,VWS V14.00,2013-02-25 09:35:00,
2013-02-25 03:40:00,34.0,26.9,30.04,NE,45,9.0,10.0,75,0.00,,---,0.00,VWS V14.00,2013-02-25 09:40:00,
2013-02-25 03:45:00,35.0,27.9,30.04,East,90,9.0,9.0,75,0.00,,---,0.00,VWS V14.00,2013-02-25 09:45:00,
2013-02-25 03:50:00,35.0,27.6,30.04,NE,45,6.0,9.0,74,0.00,,---,0.00,VWS V14.00,2013-02-25 09:50:00,
2013-02-25 03:55:00,36.0,28.2,30.04,NE,45,10.0,13.0,73,0.00,,---,0.00,VWS V14.00,2013-02-25 09:55:00,
2013-02-25 04:00:00,36.0,27.9,30.04,NE,45,6.0,9.0,72,0.00,,---,0.00,VWS V14.00,2013-02-25 10:00:00,
2013-02-25 04:05:00,35.0,26.9,30.04,NE,45,7.0,8.0,72,0.00,,---,0.00,VWS V14.00,2013-02-25 10:05:00,
2013-02-25 04:10:00,35.0,26.9,30.04,NNE,22,5.0,7.0,72,0.00,,---,0.00,VWS V14.00,2013-02-25 10:10:00,
2013-02-25 04:15:00,35.0,26.9,30.04,NE,45,3.0,5.0,72,0.00,,---,0.00,VWS V14.00,2013-02-25 10:15:00,
2013-02-25 04:20:00,35.0,27.2,30.05,NW,315,1.0,6.0,73,0.00,,---,0.00,VWS V14.00,2013-02-25 10:20:00,
2013-02-25 04:25:00,35.0,27.6,30.04,WNW,292,6.0,7.0,74,0.00,,---,0.00,VWS V14.00,2013-02-25 10:25:00,
2013-02-25 04:30:00,35.0,27.9,30.04,NE,45,7.0,7.0,75,0.00,,---,0.00,VWS V14.00,2013-02-25 10:30:00,
2013-02-25 04:35:00,35.0,27.6,30.04,NNE,22,9.0,10.0,74,0.00,,---,0.00,VWS V14.00,2013-02-25 10:35:00,
2013-02-25 04:40:00,35.0,27.2,30.04,NE,45,8.0,8.0,73,0.00,,---,0.00,VWS V14.00,2013-02-25 10:40:00,
2013-02-25 04:45:00,36.0,28.2,30.03,ENE,68,8.0,11.0,73,0.00,,---,0.00,VWS V14.00,2013-02-25 10:45:00,
2013-02-25 04:50:00,36.0,27.5,30.03,East,90,8.0,11.0,71,0.00,,---,0.00,VWS V14.00,2013-02-25 10:50:00,
2013-02-25 04:55:00,37.0,28.1,30.02,ENE,68,8.0,11.0,70,0.00,,---,0.00,VWS V14.00,2013-02-25 10:55:00,
2013-02-25 05:00:00,37.0,27.4,30.02,NE,45,6.0,10.0,68,0.00,,---,0.00,VWS V14.00,2013-02-25 11:00:00,
2013-02-25 05:05:00,37.0,27.4,30.03,NE,45,5.0,10.0,68,0.00,,---,0.00,VWS V14.00,2013-02-25 11:05:00,
2013-02-25 05:10:00,37.0,27.1,30.02,North,0,5.0,10.0,67,0.00,,---,0.00,VWS V14.00,2013-02-25 11:10:00,
2013-02-25 05:15:00,37.0,27.1,30.02,NE,45,5.0,8.0,67,0.00,,---,0.00,VWS V14.00,2013-02-25 11:15:00,
2013-02-25 05:20:00,36.0,26.5,30.01,NE,45,6.0,8.0,68,0.00,,---,0.00,VWS V14.00,2013-02-25 11:20:00,
2013-02-25 05:25:00,36.0,26.8,30.01,NE,45,6.0,8.0,69,0.00,,---,0.00,VWS V14.00,2013-02-25 11:25:00,
2013-02-25 05:30:00,36.0,26.8,30.01,ENE,68,7.0,8.0,69,0.00,,---,0.00,VWS V14.00,2013-02-25 11:30:00,
2013-02-25 05:35:00,36.0,26.5,30.02,NE,45,3.0,5.0,68,0.00,,---,0.00,VWS V14.00,2013-02-25 11:35:00,
2013-02-25 05:40:00,36.0,26.5,30.03,NNE,22,3.0,4.0,68,0.00,,---,0.00,VWS V14.00,2013-02-25 11:40:00,
2013-02-25 05:45:00,36.0,26.5,30.03,NNE,22,2.0,4.0,68,0.00,,---,0.00,VWS V14.00,2013-02-25 11:45:00,
2013-02-25 05:50:00,35.0,25.9,30.03,NNE,22,2.0,3.0,69,0.00,,---,0.00,VWS V14.00,2013-02-25 11:50:00,
2013-02-25 05:54:00,35.0,26.2,30.03,NNE,22,5.0,5.0,70,0.00,,---,0.00,VWS V14.00,2013-02-25 11:54:00,
2013-02-25 05:59:00,35.0,26.6,30.04,ESE,112,3.0,5.0,71,0.00,,---,0.00,VWS V14.00,2013-02-25 11:59:00,
2013-02-25 06:04:00,34.0,25.9,30.04,NE,45,5.0,6.0,72,0.00,,---,0.00,VWS V14.00,2013-02-25 12:04:00,
2013-02-25 06:09:00,34.0,26.3,30.03,NE,45,7.0,8.0,73,0.00,,---,0.00,VWS V14.00,2013-02-25 12:09:00,
2013-02-25 06:14:00,34.0,26.3,30.03,ENE,68,3.0,9.0,73,0.00,,---,0.00,VWS V14.00,2013-02-25 12:14:00,
2013-02-25 06:19:00,35.0,27.2,30.03,NE,45,3.0,3.0,73,0.00,,---,0.00,VWS V14.00,2013-02-25 12:19:00,
2013-02-25 06:24:00,35.0,26.9,30.03,NE,45,5.0,6.0,72,0.00,,---,0.00,VWS V14.00,2013-02-25 12:24:00,
2013-02-25 06:29:00,34.0,25.9,30.03,NE,45,7.0,8.0,72,0.00,,---,0.00,VWS V14.00,2013-02-25 12:29:00,
2013-02-25 06:34:00,34.0,26.3,30.03,NNE,22,6.0,8.0,73,0.00,,---,0.00,VWS V14.00,2013-02-25 12:34:00,
2013-02-25 06:39:00,35.0,27.2,30.03,NE,45,8.0,10.0,73,0.00,,---,0.00,VWS V14.00,2013-02-25 12:39:00,
2013-02-25 06:44:00,35.0,27.2,30.03,NE,45,6.0,9.0,73,0.00,,---,0.00,VWS V14.00,2013-02-25 12:44:00,
2013-02-25 06:50:00,35.0,27.2,30.03,NE,45,7.0,10.0,73,0.00,,---,0.00,VWS V14.00,2013-02-25 12:50:00,
2013-02-25 06:55:00,35.0,26.9,30.03,NE,45,11.0,11.0,72,0.00,,---,0.00,VWS V14.00,2013-02-25 12:55:00,
2013-02-25 07:00:00,35.0,26.9,30.02,NE,45,5.0,9.0,72,0.00,,---,0.00,VWS V14.00,2013-02-25 13:00:00,
2013-02-25 07:05:00,36.0,27.5,30.03,NE,45,7.0,11.0,71,0.00,,---,0.00,VWS V14.00,2013-02-25 13:05:00,
2013-02-25 07:10:00,36.0,27.5,30.03,ENE,68,4.0,10.0,71,0.00,,---,0.00,VWS V14.00,2013-02-25 13:10:00,
2013-02-25 07:15:00,36.0,27.5,30.02,ENE,68,9.0,9.0,71,0.00,,---,0.00,VWS V14.00,2013-02-25 13:15:00,
2013-02-25 07:20:00,36.0,27.2,30.02,ENE,68,9.0,10.0,70,0.00,,---,0.00,VWS V14.00,2013-02-25 13:20:00,
2013-02-25 07:25:00,37.0,28.1,30.01,ENE,68,9.0,15.0,70,0.00,,---,0.00,VWS V14.00,2013-02-25 13:25:00,
2013-02-25 07:30:00,37.0,27.8,30.01,ENE,68,11.0,16.0,69,0.00,,---,0.00,VWS V14.00,2013-02-25 13:30:00,
2013-02-25 07:35:00,38.0,28.0,30.00,ENE,68,11.0,20.0,67,0.00,,---,0.00,VWS V14.00,2013-02-25 13:35:00,
2013-02-25 07:40:00,39.0,28.6,30.01,NE,45,10.0,16.0,66,0.00,,---,0.00,VWS V14.00,2013-02-25 13:40:00,
2013-02-25 07:45:00,39.0,27.9,30.01,East,90,16.0,19.0,64,0.00,,---,0.00,VWS V14.00,2013-02-25 13:45:00,
2013-02-25 07:50:00,39.0,27.9,30.02,ENE,68,13.0,16.0,64,0.00,,---,0.00,VWS V14.00,2013-02-25 13:50:00,
2013-02-25 07:55:00,39.0,27.9,30.02,East,90,16.0,19.0,64,0.00,,---,0.00,VWS V14.00,2013-02-25 13:55:00,
2013-02-25 08:00:00,38.0,27.3,30.02,East,90,11.0,16.0,65,0.00,,---,0.00,VWS V14.00,2013-02-25 14:00:00,
2013-02-25 08:05:00,39.0,28.6,30.02,East,90,10.0,11.0,66,0.00,,---,0.00,VWS V14.00,2013-02-25 14:05:00,
2013-02-25 08:10:00,39.0,27.9,30.02,ENE,68,14.0,20.0,64,0.00,,---,0.00,VWS V14.00,2013-02-25 14:10:00,
2013-02-25 08:15:00,39.0,27.9,30.02,East,90,8.0,12.0,64,0.00,,---,0.00,VWS V14.00,2013-02-25 14:15:00,
2013-02-25 08:20:00,40.0,28.8,30.02,East,90,4.0,5.0,64,0.00,,---,0.00,VWS V14.00,2013-02-25 14:20:00,
2013-02-25 08:25:00,40.0,28.8,30.02,East,90,8.0,13.0,64,0.00,,---,0.00,VWS V14.00,2013-02-25 14:25:00,
2013-02-25 08:30:00,41.0,29.4,30.02,ENE,68,8.0,13.0,63,0.00,,---,0.00,VWS V14.00,2013-02-25 14:30:00,
2013-02-25 08:35:00,41.0,29.0,30.02,ENE,68,13.0,18.0,62,0.00,,---,0.00,VWS V14.00,2013-02-25 14:35:00,
2013-02-25 08:40:00,41.0,29.4,30.01,ENE,68,6.0,12.0,63,0.00,,---,0.00,VWS V14.00,2013-02-25 14:40:00,
2013-02-25 08:45:00,41.0,29.0,30.01,ENE,68,13.0,13.0,62,0.00,,---,0.00,VWS V14.00,2013-02-25 14:45:00,
2013-02-25 08:50:00,42.0,29.5,30.02,NE,45,10.0,10.0,61,0.00,,---,0.00,VWS V14.00,2013-02-25 14:50:00,
2013-02-25 08:55:00,42.0,29.1,30.02,ENE,68,14.0,14.0,60,0.00,,---,0.00,VWS V14.00,2013-02-25 14:55:00,
2013-02-25 09:00:00,42.0,29.5,30.02,NE,45,7.0,9.0,61,0.00,,---,0.00,VWS V14.00,2013-02-25 15:00:00,
2013-02-25 09:05:00,43.0,29.7,30.02,East,90,8.0,13.0,59,0.00,,---,0.00,VWS V14.00,2013-02-25 15:05:00,
2013-02-25 09:10:00,44.0,30.6,30.02,NE,45,8.0,17.0,59,0.00,,---,0.00,VWS V14.00,2013-02-25 15:10:00,
2013-02-25 09:15:00,44.0,30.2,30.02,ENE,68,10.0,13.0,58,0.00,,---,0.00,VWS V14.00,2013-02-25 15:15:00,
2013-02-25 09:20:00,44.0,29.8,30.02,ENE,68,6.0,6.0,57,0.00,,---,0.00,VWS V14.00,2013-02-25 15:20:00,
2013-02-25 09:25:00,45.0,30.7,30.02,ENE,68,10.0,11.0,57,0.00,,---,0.00,VWS V14.00,2013-02-25 15:25:00,
2013-02-25 09:30:00,45.0,30.3,30.01,East,90,15.0,16.0,56,0.00,,---,0.00,VWS V14.00,2013-02-25 15:30:00,
2013-02-25 09:35:00,45.0,30.3,30.00,ENE,68,17.0,17.0,56,0.00,,---,0.00,VWS V14.00,2013-02-25 15:35:00,
2013-02-25 09:40:00,45.0,30.3,30.00,ENE,68,13.0,13.0,56,0.00,,---,0.00,VWS V14.00,2013-02-25 15:40:00,
2013-02-25 09:45:00,45.0,29.4,30.00,ENE,68,20.0,20.0,54,0.00,,---,0.00,VWS V14.00,2013-02-25 15:45:00,
2013-02-25 09:50:00,46.0,30.8,30.01,East,90,8.0,10.0,55,0.00,,---,0.00,VWS V14.00,2013-02-25 15:50:00,
2013-02-25 09:55:00,45.0,28.9,30.00,ENE,68,16.0,16.0,53,0.00,,---,0.00,VWS V14.00,2013-02-25 15:55:00,
2013-02-25 10:00:00,46.0,30.3,30.00,East,90,16.0,18.0,54,0.00,,---,0.00,VWS V14.00,2013-02-25 16:00:00,
2013-02-25 10:05:00,46.0,30.3,30.00,East,90,11.0,11.0,54,0.00,,---,0.00,VWS V14.00,2013-02-25 16:05:00,
2013-02-25 10:10:00,47.0,30.8,30.01,East,90,12.0,12.0,53,0.00,,---,0.00,VWS V14.00,2013-02-25 16:10:00,
2013-02-25 10:15:00,47.0,30.8,30.00,East,90,13.0,14.0,53,0.00,,---,0.00,VWS V14.00,2013-02-25 16:15:00,
2013-02-25 10:20:00,47.0,30.8,30.00,ENE,68,13.0,13.0,53,0.00,,---,0.00,VWS V14.00,2013-02-25 16:20:00,
2013-02-25 10:25:00,46.0,29.4,30.00,East,90,13.0,16.0,52,0.00,,---,0.00,VWS V14.00,2013-02-25 16:25:00,
2013-02-25 10:30:00,47.0,30.3,29.99,East,90,13.0,17.0,52,0.00,,---,0.00,VWS V14.00,2013-02-25 16:30:00,
2013-02-25 10:35:00,47.0,29.8,29.99,East,90,11.0,11.0,51,0.00,,---,0.00,VWS V14.00,2013-02-25 16:35:00,
2013-02-25 10:40:00,47.0,29.3,29.99,ENE,68,14.0,14.0,50,0.00,,---,0.00,VWS V14.00,2013-02-25 16:40:00,
2013-02-25 10:45:00,48.0,30.3,29.98,East,90,13.0,18.0,50,0.00,,---,0.00,VWS V14.00,2013-02-25 16:45:00,
2013-02-25 10:50:00,49.0,31.2,29.98,East,90,11.0,16.0,50,0.00,,---,0.00,VWS V14.00,2013-02-25 16:50:00,
2013-02-25 10:55:00,49.0,30.7,29.98,ENE,68,6.0,6.0,49,0.00,,---,0.00,VWS V14.00,2013-02-25 16:55:00,
2013-02-25 11:00:00,49.0,30.2,29.97,ENE,68,18.0,28.0,48,0.00,,---,0.00,VWS V14.00,2013-02-25 17:00:00,
2013-02-25 11:05:00,49.0,30.2,29.97,ENE,68,16.0,16.0,48,0.00,,---,0.00,VWS V14.00,2013-02-25 17:05:00,
2013-02-25 11:10:00,49.0,30.2,29.97,East,90,11.0,11.0,48,0.00,,---,0.00,VWS V14.00,2013-02-25 17:10:00,
2013-02-25 11:15:00,49.0,29.1,29.96,NNE,22,10.0,16.0,46,0.00,,---,0.00,VWS V14.00,2013-02-25 17:15:00,
2013-02-25 11:20:00,50.0,30.0,29.96,East,90,22.0,22.0,46,0.00,,---,0.00,VWS V14.00,2013-02-25 17:20:00,
2013-02-25 11:25:00,50.0,29.0,29.96,ESE,112,15.0,18.0,44,0.00,,---,0.00,VWS V14.00,2013-02-25 17:25:00,
2013-02-25 11:30:00,51.0,29.3,29.96,East,90,13.0,13.0,43,0.00,,---,0.00,VWS V14.00,2013-02-25 17:30:00,
2013-02-25 11:35:00,51.0,30.4,29.96,ENE,68,8.0,10.0,45,0.00,,---,0.00,VWS V14.00,2013-02-25 17:35:00,
2013-02-25 11:40:00,51.0,29.9,29.96,ENE,68,13.0,18.0,44,0.00,,---,0.00,VWS V14.00,2013-02-25 17:40:00,
2013-02-25 11:45:00,51.0,29.3,29.95,East,90,11.0,14.0,43,0.00,,---,0.00,VWS V14.00,2013-02-25 17:45:00,
2013-02-25 11:50:00,51.0,29.9,29.95,East,90,10.0,13.0,44,0.00,,---,0.00,VWS V14.00,2013-02-25 17:50:00,
2013-02-25 11:55:00,52.0,31.9,29.94,East,90,10.0,13.0,46,0.00,,---,0.00,VWS V14.00,2013-02-25 17:55:00,
2013-02-25 12:00:00,52.0,30.8,29.93,East,90,11.0,15.0,44,0.00,,---,0.00,VWS V14.00,2013-02-25 18:00:00,
2013-02-25 12:05:00,52.0,30.8,29.93,ESE,112,6.0,6.0,44,0.00,,---,0.00,VWS V14.00,2013-02-25 18:05:00,
2013-02-25 12:10:00,52.0,29.6,29.92,East,90,11.0,20.0,42,0.00,,---,0.00,VWS V14.00,2013-02-25 18:10:00,
2013-02-25 12:15:00,53.0,31.7,29.92,ESE,112,10.0,10.0,44,0.00,,---,0.00,VWS V14.00,2013-02-25 18:15:00,
2013-02-25 12:20:00,53.0,30.5,29.91,ENE,68,19.0,19.0,42,0.00,,---,0.00,VWS V14.00,2013-02-25 18:20:00,
2013-02-25 12:25:00,53.0,30.5,29.90,East,90,11.0,13.0,42,0.00,,---,0.00,VWS V14.00,2013-02-25 18:25:00,
2013-02-25 12:30:00,53.0,30.0,29.90,NE,45,18.0,21.0,41,0.00,,---,0.00,VWS V14.00,2013-02-25 18:30:00,
2013-02-25 12:35:00,53.0,31.1,29.89,NNE,22,8.0,8.0,43,0.00,,---,0.00,VWS V14.00,2013-02-25 18:35:00,
2013-02-25 12:40:00,53.0,30.5,29.89,ENE,68,15.0,19.0,42,0.00,,---,0.00,VWS V14.00,2013-02-25 18:40:00,
2013-02-25 12:45:00,53.0,30.0,29.89,ENE,68,14.0,14.0,41,0.00,,---,0.00,VWS V14.00,2013-02-25 18:45:00,
2013-02-25 12:50:00,54.0,31.5,29.88,ENE,68,14.0,18.0,42,0.00,,---,0.00,VWS V14.00,2013-02-25 18:50:00,
2013-02-25 12:55:00,54.0,31.5,29.86,NE,45,16.0,16.0,42,0.00,,---,0.00,VWS V14.00,2013-02-25 18:55:00,
2013-02-25 13:00:00,55.0,31.1,29.86,NE,45,13.0,13.0,40,0.00,,---,0.00,VWS V14.00,2013-02-25 19:00:00,
2013-02-25 13:05:00,54.0,30.2,29.86,ENE,68,11.0,11.0,40,0.00,,---,0.00,VWS V14.00,2013-02-25 19:05:00,
2013-02-25 13:10:00,54.0,30.2,29.86,ENE,68,11.0,15.0,40,0.00,,---,0.00,VWS V14.00,2013-02-25 19:10:00,
2013-02-25 13:15:00,55.0,32.3,29.86,NE,45,12.0,12.0,42,0.00,,---,0.00,VWS V14.00,2013-02-25 19:15:00,
2013-02-25 13:20:00,55.0,31.1,29.86,East,90,13.0,19.0,40,0.00,,---,0.00,VWS V14.00,2013-02-25 19:20:00,
2013-02-25 13:25:00,54.0,30.2,29.86,NE,45,10.0,16.0,40,0.00,,---,0.00,VWS V14.00,2013-02-25 19:25:00,
2013-02-25 13:30:00,55.0,31.1,29.87,NE,45,10.0,14.0,40,0.00,,---,0.00,VWS V14.00,2013-02-25 19:30:00,
2013-02-25 13:35:00,55.0,31.1,29.87,ENE,68,12.0,19.0,40,0.00,,---,0.00,VWS V14.00,2013-02-25 19:35:00,
2013-02-25 13:40:00,55.0,31.8,29.86,NE,45,13.0,20.0,41,0.00,,---,0.00,VWS V14.00,2013-02-25 19:40:00,
2013-02-25 13:45:00,54.0,29.6,29.85,ENE,68,11.0,14.0,39,0.00,,---,0.00,VWS V14.00,2013-02-25 19:45:00,
2013-02-25 13:50:00,54.0,30.9,29.85,NE,45,16.0,17.0,41,0.00,,---,0.00,VWS V14.00,2013-02-25 19:50:00,
2013-02-25 13:55:00,54.0,30.9,29.85,NE,45,12.0,12.0,41,0.00,,---,0.00,VWS V14.00,2013-02-25 19:55:00,
2013-02-25 14:00:00,54.0,30.9,29.84,NE,45,13.0,15.0,41,0.00,,---,0.00,VWS V14.00,2013-02-25 20:00:00,
2013-02-25 14:05:00,55.0,31.8,29.84,NE,45,10.0,16.0,41,0.00,,---,0.00,VWS V14.00,2013-02-25 20:05:00,
2013-02-25 14:10:00,55.0,32.3,29.84,NE,45,8.0,11.0,42,0.00,,---,0.00,VWS V14.00,2013-02-25 20:10:00,
2013-02-25 14:15:00,55.0,31.1,29.83,NE,45,14.0,19.0,40,0.00,,---,0.00,VWS V14.00,2013-02-25 20:15:00,
2013-02-25 14:20:00,55.0,31.8,29.83,NE,45,11.0,18.0,41,0.00,,---,0.00,VWS V14.00,2013-02-25 20:20:00,
2013-02-25 14:25:00,55.0,31.8,29.82,ENE,68,10.0,14.0,41,0.00,,---,0.00,VWS V14.00,2013-02-25 20:25:00,
2013-02-25 14:30:00,55.0,32.3,29.82,NE,45,13.0,17.0,42,0.00,,---,0.00,VWS V14.00,2013-02-25 20:30:00,
2013-02-25 14:35:00,55.0,32.9,29.82,ENE,68,10.0,18.0,43,0.00,,---,0.00,VWS V14.00,2013-02-25 20:35:00,
2013-02-25 14:40:00,54.0,32.6,29.81,NE,45,11.0,18.0,44,0.00,,---,0.00,VWS V14.00,2013-02-25 20:40:00,
2013-02-25 14:45:00,54.0,32.0,29.80,NE,45,14.0,23.0,43,0.00,,---,0.00,VWS V14.00,2013-02-25 20:45:00,
2013-02-25 14:50:00,54.0,32.6,29.80,NE,45,11.0,18.0,44,0.00,,---,0.00,VWS V14.00,2013-02-25 20:50:00,
2013-02-25 14:55:00,55.0,33.5,29.80,NE,45,14.0,18.0,44,0.00,,---,0.00,VWS V14.00,2013-02-25 20:55:00,
2013-02-25 15:00:00,55.0,34.1,29.81,NE,45,9.0,16.0,45,0.00,,---,0.00,VWS V14.00,2013-02-25 21:00:00,
2013-02-25 15:05:00,55.0,32.3,29.81,NE,45,10.0,18.0,42,0.00,,---,0.00,VWS V14.00,2013-02-25 21:05:00,
2013-02-25 15:10:00,54.0,31.5,29.80,NE,45,18.0,21.0,42,0.00,,---,0.00,VWS V14.00,2013-02-25 21:10:00,
2013-02-25 15:15:00,54.0,32.0,29.80,NE,45,16.0,21.0,43,0.00,,---,0.00,VWS V14.00,2013-02-25 21:15:00,
2013-02-25 15:20:00,54.0,32.0,29.80,ENE,68,11.0,17.0,43,0.00,,---,0.00,VWS V14.00,2013-02-25 21:20:00,
2013-02-25 15:25:00,54.0,32.0,29.80,ENE,68,8.0,16.0,43,0.00,,---,0.00,VWS V14.00,2013-02-25 21:25:00,
2013-02-25 15:30:00,54.0,32.0,29.79,NE,45,19.0,23.0,43,0.00,,---,0.00,VWS V14.00,2013-02-25 21:30:00,
2013-02-25 15:35:00,54.0,31.5,29.80,NE,45,10.0,24.0,42,0.00,,---,0.00,VWS V14.00,2013-02-25 21:35:00,
2013-02-25 15:40:00,54.0,32.0,29.79,NE,45,14.0,17.0,43,0.00,,---,0.00,VWS V14.00,2013-02-25 21:40:00,
2013-02-25 15:45:00,54.0,32.0,29.79,ENE,68,13.0,16.0,43,0.00,,---,0.00,VWS V14.00,2013-02-25 21:45:00,
2013-02-25 15:50:00,54.0,32.6,29.79,NE,45,11.0,16.0,44,0.00,,---,0.00,VWS V14.00,2013-02-25 21:50:00,
2013-02-25 15:55:00,54.0,32.0,29.78,ENE,68,21.0,24.0,43,0.00,,---,0.00,VWS V14.00,2013-02-25 21:55:00,
2013-02-25 16:00:00,54.0,31.5,29.77,NE,45,16.0,20.0,42,0.00,,---,0.00,VWS V14.00,2013-02-25 22:00:00,
2013-02-25 16:05:00,54.0,32.0,29.77,ENE,68,14.0,20.0,43,0.00,,---,0.00,VWS V14.00,2013-02-25 22:05:00,
2013-02-25 16:10:00,53.0,32.2,29.76,NNE,22,14.0,17.0,45,0.00,,---,0.00,VWS V14.00,2013-02-25 22:10:00,
2013-02-25 16:15:00,53.0,32.8,29.75,NE,45,16.0,22.0,46,0.00,,---,0.00,VWS V14.00,2013-02-25 22:15:00,
2013-02-25 16:20:00,52.0,32.4,29.75,NE,45,21.0,25.0,47,0.00,,---,0.00,VWS V14.00,2013-02-25 22:20:00,
2013-02-25 16:25:00,52.0,32.4,29.74,NE,45,20.0,20.0,47,0.00,,---,0.00,VWS V14.00,2013-02-25 22:25:00,
2013-02-25 16:30:00,52.0,32.4,29.74,NE,45,16.0,24.0,47,0.00,,---,0.00,VWS V14.00,2013-02-25 22:30:00,
2013-02-25 16:35:00,52.0,32.4,29.73,NE,45,14.0,23.0,47,0.00,,---,0.00,VWS V14.00,2013-02-25 22:35:00,
2013-02-25 16:40:00,52.0,32.9,29.73,NE,45,13.0,23.0,48,0.00,,---,0.00,VWS V14.00,2013-02-25 22:40:00,
2013-02-25 16:45:00,52.0,32.4,29.73,ENE,68,14.0,24.0,47,0.00,,---,0.00,VWS V14.00,2013-02-25 22:45:00,
2013-02-25 16:50:00,52.0,32.9,29.73,NE,45,11.0,16.0,48,0.00,,---,0.00,VWS V14.00,2013-02-25 22:50:00,
2013-02-25 16:55:00,52.0,32.4,29.72,NE,45,18.0,24.0,47,0.00,,---,0.00,VWS V14.00,2013-02-25 22:55:00,
2013-02-25 17:00:00,52.0,32.4,29.72,ENE,68,19.0,26.0,47,0.00,,---,0.00,VWS V14.00,2013-02-25 23:00:00,
2013-02-25 17:05:00,52.0,32.4,29.72,NE,45,11.0,20.0,47,0.00,,---,0.00,VWS V14.00,2013-02-25 23:05:00,
2013-02-25 17:10:00,52.0,32.9,29.72,NE,45,13.0,20.0,48,0.00,,---,0.00,VWS V14.00,2013-02-25 23:10:00,
2013-02-25 17:15:00,52.0,32.9,29.72,ENE,68,13.0,14.0,48,0.00,,---,0.00,VWS V14.00,2013-02-25 23:15:00,
2013-02-25 17:20:00,52.0,32.9,29.71,NE,45,8.0,13.0,48,0.00,,---,0.00,VWS V14.00,2013-02-25 23:20:00,
2013-02-25 17:25:00,51.0,32.5,29.72,ENE,68,8.0,11.0,49,0.00,,---,0.00,VWS V14.00,2013-02-25 23:25:00,
2013-02-25 17:30:00,51.0,32.5,29.72,NNE,22,10.0,19.0,49,0.00,,---,0.00,VWS V14.00,2013-02-25 23:30:00,
2013-02-25 17:35:00,51.0,32.0,29.72,ENE,68,19.0,21.0,48,0.00,,---,0.00,VWS V14.00,2013-02-25 23:35:00,
2013-02-25 17:40:00,51.0,32.0,29.71,ENE,68,15.0,28.0,48,0.00,,---,0.00,VWS V14.00,2013-02-25 23:40:00,
2013-02-25 17:45:00,51.0,32.0,29.71,ENE,68,14.0,23.0,48,0.00,,---,0.00,VWS V14.00,2013-02-25 23:45:00,
2013-02-25 17:50:00,51.0,32.0,29.72,ENE,68,21.0,23.0,48,0.00,,---,0.00,VWS V14.00,2013-02-25 23:50:00,
2013-02-25 17:55:00,51.0,32.5,29.71,NE,45,19.0,19.0,49,0.00,,---,0.00,VWS V14.00,2013-02-25 23:55:00,
2013-02-25 18:00:00,51.0,32.0,29.71,NE,45,18.0,24.0,48,0.00,,---,0.00,VWS V14.00,2013-02-26 00:00:00,
2013-02-25 18:05:00,51.0,32.5,29.71,NE,45,17.0,23.0,49,0.00,,---,0.00,VWS V14.00,2013-02-26 00:05:00,
2013-02-25 18:10:00,51.0,32.5,29.72,ENE,68,9.0,18.0,49,0.00,,---,0.00,VWS V14.00,2013-02-26 00:10:00,
2013-02-25 18:15:00,51.0,32.5,29.72,ENE,68,12.0,21.0,49,0.00,,---,0.00,VWS V14.00,2013-02-26 00:15:00,
2013-02-25 18:20:00,51.0,32.5,29.72,NE,45,19.0,21.0,49,0.00,,---,0.00,VWS V14.00,2013-02-26 00:20:00,
2013-02-25 18:25:00,51.0,33.0,29.72,NE,45,11.0,22.0,50,0.00,,---,0.00,VWS V14.00,2013-02-26 00:25:00,
2013-02-25 18:30:00,51.0,33.0,29.72,ENE,68,15.0,19.0,50,0.00,,---,0.00,VWS V14.00,2013-02-26 00:30:00,
2013-02-25 18:35:00,50.0,32.1,29.72,NE,45,9.0,18.0,50,0.00,,---,0.00,VWS V14.00,2013-02-26 00:35:00,
2013-02-25 18:40:00,50.0,32.1,29.72,NNE,22,16.0,21.0,50,0.00,,---,0.00,VWS V14.00,2013-02-26 00:40:00,
2013-02-25 18:45:00,50.0,32.1,29.72,ENE,68,11.0,16.0,50,0.00,,---,0.00,VWS V14.00,2013-02-26 00:45:00,
2013-02-25 18:50:00,50.0,31.6,29.71,ENE,68,13.0,18.0,49,0.00,,---,0.00,VWS V14.00,2013-02-26 00:50:00,
2013-02-25 18:55:00,50.0,31.6,29.71,ENE,68,6.0,18.0,49,0.00,,---,0.00,VWS V14.00,2013-02-26 00:55:00,
2013-02-25 19:00:00,50.0,31.6,29.71,NNE,22,17.0,18.0,49,0.00,,---,0.00,VWS V14.00,2013-02-26 01:00:00,
2013-02-25 19:05:00,50.0,31.6,29.71,ENE,68,15.0,16.0,49,0.00,,---,0.00,VWS V14.00,2013-02-26 01:05:00,
2013-02-25 19:10:00,50.0,31.6,29.70,ENE,68,16.0,20.0,49,0.00,,---,0.00,VWS V14.00,2013-02-26 01:10:00,
2013-02-25 19:15:00,50.0,31.6,29.70,NE,45,11.0,19.0,49,0.00,,---,0.00,VWS V14.00,2013-02-26 01:15:00,
2013-02-25 19:20:00,50.0,31.6,29.69,ENE,68,21.0,21.0,49,0.00,,---,0.00,VWS V14.00,2013-02-26 01:20:00,
2013-02-25 19:25:00,50.0,31.6,29.70,East,90,16.0,20.0,49,0.00,,---,0.00,VWS V14.00,2013-02-26 01:25:00,
2013-02-25 19:30:00,50.0,31.6,29.70,East,90,13.0,19.0,49,0.00,,---,0.00,VWS V14.00,2013-02-26 01:30:00,
2013-02-25 19:35:00,50.0,32.1,29.69,ENE,68,11.0,18.0,50,0.00,,---,0.00,VWS V14.00,2013-02-26 01:35:00,
2013-02-25 19:40:00,50.0,32.1,29.68,East,90,14.0,18.0,50,0.00,,---,0.00,VWS V14.00,2013-02-26 01:40:00,
2013-02-25 19:45:00,50.0,31.6,29.68,East,90,13.0,26.0,49,0.00,,---,0.00,VWS V14.00,2013-02-26 01:45:00,
2013-02-25 19:50:00,50.0,32.1,29.67,ENE,68,17.0,19.0,50,0.00,,---,0.00,VWS V14.00,2013-02-26 01:50:00,
2013-02-25 19:55:00,50.0,31.6,29.66,East,90,18.0,22.0,49,0.00,,---,0.00,VWS V14.00,2013-02-26 01:55:00,
2013-02-25 20:00:00,50.0,31.6,29.65,NE,45,21.0,21.0,49,0.00,,---,0.00,VWS V14.00,2013-02-26 02:00:00,
2013-02-25 20:05:00,50.0,31.6,29.64,NE,45,15.0,20.0,49,0.00,,---,0.00,VWS V14.00,2013-02-26 02:05:00,
2013-02-25 20:10:00,50.0,31.6,29.64,NE,45,19.0,31.0,49,0.00,,---,0.00,VWS V14.00,2013-02-26 02:10:00,
2013-02-25 20:15:00,50.0,31.6,29.64,ENE,68,13.0,21.0,49,0.00,,---,0.00,VWS V14.00,2013-02-26 02:15:00,
2013-02-25 20:20:00,50.0,31.6,29.63,NE,45,21.0,21.0,49,0.00,,---,0.00,VWS V14.00,2013-02-26 02:20:00,
2013-02-25 20:25:00,50.0,31.6,29.63,East,90,16.0,16.0,49,0.00,,---,0.00,VWS V14.00,2013-02-26 02:25:00,
2013-02-25 20:30:00,50.0,31.6,29.62,ENE,68,19.0,21.0,49,0.00,,---,0.00,VWS V14.00,2013-02-26 02:30:00,
2013-02-25 20:35:00,50.0,31.6,29.62,ENE,68,13.0,27.0,49,0.00,,---,0.00,VWS V14.00,2013-02-26 02:35:00,
2013-02-25 20:40:00,50.0,31.6,29.61,East,90,16.0,21.0,49,0.00,,---,0.00,VWS V14.00,2013-02-26 02:40:00,
2013-02-25 20:45:00,50.0,31.6,29.61,NE,45,24.0,26.0,49,0.00,,---,0.00,VWS V14.00,2013-02-26 02:45:00,
2013-02-25 20:50:00,50.0,31.6,29.61,East,90,16.0,27.0,49,0.00,,---,0.00,VWS V14.00,2013-02-26 02:50:00,
2013-02-25 20:55:00,50.0,31.6,29.61,ENE,68,21.0,26.0,49,0.00,,---,0.00,VWS V14.00,2013-02-26 02:55:00,
2013-02-25 21:00:00,49.0,30.7,29.61,ENE,68,17.0,21.0,49,0.00,,---,0.00,VWS V14.00,2013-02-26 03:00:00,
2013-02-25 21:05:00,50.0,31.6,29.61,NE,45,12.0,21.0,49,0.00,,---,0.00,VWS V14.00,2013-02-26 03:05:00,
2013-02-25 21:10:00,50.0,31.6,29.61,ENE,68,10.0,24.0,49,0.00,,---,0.00,VWS V14.00,2013-02-26 03:10:00,
2013-02-25 21:15:00,49.0,30.7,29.61,ENE,68,16.0,26.0,49,0.00,,---,0.00,VWS V14.00,2013-02-26 03:15:00,
2013-02-25 21:20:00,49.0,30.7,29.61,ENE,68,16.0,20.0,49,0.00,,---,0.00,VWS V14.00,2013-02-26 03:20:00,
2013-02-25 21:25:00,49.0,31.2,29.61,ENE,68,14.0,22.0,50,0.00,,---,0.00,VWS V14.00,2013-02-26 03:25:00,
2013-02-25 21:30:00,49.0,31.2,29.60,ENE,68,18.0,18.0,50,0.00,,---,0.00,VWS V14.00,2013-02-26 03:30:00,
2013-02-25 21:35:00,49.0,31.2,29.60,NE,45,10.0,17.0,50,0.00,,---,0.00,VWS V14.00,2013-02-26 03:35:00,
2013-02-25 21:39:00,49.0,31.2,29.59,ENE,68,15.0,21.0,50,0.00,,---,0.00,VWS V14.00,2013-02-26 03:39:00,
2013-02-25 21:45:00,49.0,31.7,29.59,East,90,14.0,19.0,51,0.00,,---,0.00,VWS V14.00,2013-02-26 03:45:00,
2013-02-25 21:50:00,49.0,31.2,29.59,NE,45,11.0,21.0,50,0.00,,---,0.00,VWS V14.00,2013-02-26 03:50:00,
2013-02-25 21:55:00,49.0,31.7,29.58,East,90,13.0,18.0,51,0.00,,---,0.00,VWS V14.00,2013-02-26 03:55:00,
2013-02-25 22:00:00,49.0,31.7,29.58,East,90,14.0,23.0,51,0.00,,---,0.00,VWS V14.00,2013-02-26 04:00:00,
2013-02-25 22:05:00,49.0,31.7,29.58,ENE,68,11.0,19.0,51,0.00,,---,0.00,VWS V14.00,2013-02-26 04:05:00,
2013-02-25 22:10:00,49.0,31.7,29.57,East,90,11.0,19.0,51,0.00,,---,0.00,VWS V14.00,2013-02-26 04:10:00,
2013-02-25 22:15:00,49.0,31.7,29.57,ENE,68,11.0,16.0,51,0.00,,---,0.00,VWS V14.00,2013-02-26 04:15:00,
2013-02-25 22:20:00,49.0,31.7,29.57,East,90,11.0,18.0,51,0.00,,---,0.00,VWS V14.00,2013-02-26 04:20:00,
2013-02-25 22:25:00,49.0,31.7,29.56,ENE,68,12.0,21.0,51,0.00,,---,0.00,VWS V14.00,2013-02-26 04:25:00,
2013-02-25 22:30:00,49.0,31.7,29.55,NE,45,25.0,25.0,51,0.00,,---,0.00,VWS V14.00,2013-02-26 04:30:00,
2013-02-25 22:35:00,49.0,31.7,29.56,East,90,16.0,21.0,51,0.00,,---,0.00,VWS V14.00,2013-02-26 04:35:00,
2013-02-25 22:40:00,49.0,32.2,29.55,ENE,68,14.0,18.0,52,0.00,,---,0.00,VWS V14.00,2013-02-26 04:40:00,
2013-02-25 22:45:00,49.0,32.2,29.55,East,90,21.0,26.0,52,0.00,,---,0.00,VWS V14.00,2013-02-26 04:45:00,
2013-02-25 22:50:00,49.0,32.2,29.55,NE,45,10.0,21.0,52,0.00,,---,0.00,VWS V14.00,2013-02-26 04:50:00,
2013-02-25 22:55:00,49.0,32.2,29.55,NE,45,10.0,18.0,52,0.00,,---,0.00,VWS V14.00,2013-02-26 04:55:00,
2013-02-25 23:00:00,49.0,33.1,29.55,ENE,68,11.0,16.0,54,0.00,,---,0.00,VWS V14.00,2013-02-26 05:00:00,
2013-02-25 23:05:00,48.0,33.1,29.55,ENE,68,11.0,11.0,56,0.00,,---,0.00,VWS V14.00,2013-02-26 05:05:00,
2013-02-25 23:10:00,47.0,34.3,29.56,ENE,68,10.0,13.0,61,0.00,,---,0.00,VWS V14.00,2013-02-26 05:10:00,
2013-02-25 23:15:00,47.0,34.7,29.55,ENE,68,13.0,19.0,62,0.00,,---,0.00,VWS V14.00,2013-02-26 05:15:00,
2013-02-25 23:20:00,46.0,34.9,29.55,ENE,68,13.0,15.0,65,0.01,,---,0.01,VWS V14.00,2013-02-26 05:20:00,
2013-02-25 23:25:00,46.0,35.7,29.54,ENE,68,11.0,11.0,67,0.01,,---,0.01,VWS V14.00,2013-02-26 05:25:00,
2013-02-25 23:30:00,46.0,36.4,29.54,NE,45,9.0,10.0,69,0.01,,---,0.01,VWS V14.00,2013-02-26 05:30:00,
2013-02-25 23:35:00,45.0,36.2,29.55,ENE,68,8.0,10.0,71,0.02,,---,0.02,VWS V14.00,2013-02-26 05:35:00,
2013-02-25 23:40:00,45.0,36.5,29.55,ENE,68,10.0,10.0,72,0.03,,---,0.03,VWS V14.00,2013-02-26 05:40:00,
2013-02-25 23:45:00,45.0,36.9,29.55,ENE,68,11.0,13.0,73,0.04,,---,0.04,VWS V14.00,2013-02-26 05:45:00,
2013-02-25 23:50:00,45.0,37.6,29.54,East,90,8.0,10.0,75,0.06,,---,0.06,VWS V14.00,2013-02-26 05:50:00,
2013-02-25 23:55:00,44.0,36.9,29.52,ENE,68,8.0,13.0,76,0.07,,---,0.00,VWS V14.00,2013-02-26 05:55:00,